Hourly Data Report for May 14, 2020

MIRAMICHI RCS
NEW BRUNSWICK
Current Station Operator: ECCC - MSC

47°00'34.000" N
65°27'54.000" W
33.00 m
8100989
71744
ACQ

Download Data

Hourly Data (May 2020)
Hourly Data Report for May 14, 2020
TIME
LST
Temp Definition
°C
Dew Point Definition
°C
Rel Hum Definition
%
Precip. Amount Definition
mm

Wind Dir Definition
10's deg

Wind Spd Definition
km/h
Visibility Definition
km
Stn Press Definition
kPa
Hmdx Definition


Wind Chill Definition


Weather Definition


00:00 4.1 -8.3 40 LegendMM 29 16   100.77     LegendNANA
01:00 4.3 -8.6 38 LegendMM 29 17   100.79     LegendNANA
02:00 3.6 -8.4 41 LegendMM 29 16   100.79     LegendNANA
03:00 2.9 -8.2 44 LegendMM 28 13   100.79     LegendNANA
04:00 1.1 -7.8 51 LegendMM 25 10   100.76     LegendNANA
05:00 1.0 -7.7 52 LegendMM 25 12   100.74     LegendNANA
06:00 2.9 -7.7 46 LegendMM 27 17   100.74     LegendNANA
07:00 4.8 -8.2 38 LegendMM 30 28   100.73     LegendNANA
08:00 5.9 -7.7 37 LegendMM 30 25   100.75     LegendNANA
09:00 7.3 -6.9 36 LegendMM 31 26   100.75     LegendNANA
10:00 8.6 -7.4 31 LegendMM 31 23   100.73     LegendNANA
11:00 10.3 -5.9 31 LegendMM 31 25   100.73     LegendNANA
12:00 11.5 -5.2 31 LegendMM 30 29   100.68     LegendNANA
13:00 12.3 -5.3 29 LegendMM 31 24   100.68     LegendNANA
14:00 12.3 -5.7 28 LegendMM 32 25   100.69     LegendNANA
15:00 13.0 -5.4 27 LegendMM 31 21   100.70     LegendNANA
16:00 13.2 -4.8 28 LegendMM 34 20   100.76     LegendNANA
17:00 13.5 -4.9 27 LegendMM 31 24   100.79     LegendNANA
18:00 13.6 -5.6 26 LegendMM 30 21   100.86     LegendNANA
19:00 12.9 -6.0 26 LegendMM 31 18   100.91     LegendNANA
20:00 11.2 -6.0 29 LegendMM 31 10   100.98     LegendNANA
21:00 8.9 -5.4 36 LegendMM 29 7   101.05     LegendNANA
22:00 5.8 -3.8 50 LegendMM 30 6   101.08     LegendNANA
23:00 3.7 -1.6 68 LegendMM 28 4   101.09     LegendNANA

Notes on Data Quality.

Legend

  • E = Estimated
  • M = Missing
  • NA = Not Available*
  • [empty] = Indicates an unobserved value
Date modified: